[[{"header":{"parameterUnit":"m.s-1","parameterCategory":1,"la1":30.2991,"la2":30.254,"lo1":-89.0895,"lo2":-89.0444,"dy":0.0017,"dx":0.0017,"nx":28,"ny":28,"refTime":"2023-11-23T03:00:00:Z","depth":0,"parameterNumber":2,"parameterNumberName":"U-component_of_WINDS"},"data":[0,0,0,0,0,0,0,0,0,0,0,0,0,0,0,0,0,0,0,0,0,0,0,0,0,0,0,0,0,0,0,0,0,0,0,0,0,0,0,0,0,0,0,0,0,0,0,0,0,0,0,0,0,0,0,0,0,0,-1.885,-1.8851,0,-1.8943,-1.8944,-1.8945,-1.8877,-1.8874,-1.8871,-1.8868,-1.8964,-1.8969,-1.8974,0,0,0,0,0,0,0,0,0,0,0,0,0,-1.8614,-1.8619,-1.885,-1.8852,-1.8853,-1.8943,-1.8944,-1.8945,-1.8877,-1.8873,-1.887,-1.8866,-1.8962,-1.8968,-1.8975,0,0,0,0,0,0,0,0,0,0,0,0,0,-1.8713,-1.8621,-1.885,-1.8829,-1.8829,-1.8943,-1.8944,-1.8946,-1.8878,-1.8873,-1.8869,-1.8865,-1.896,-1.8968,-1.8976,-1.9115,0,0,-1.9,-1.9004,0,0,0,0,0,0,0,0,-1.8708,-1.8722,-1.8831,-1.8831,-1.883,-1.8894,-1.8896,-1.9003,-1.8879,-1.8859,-1.8868,-1.8862,-1.8944,-1.8953,-1.8981,-1.912,-1.9124,-1.9001,-1.9006,-1.9009,-1.9012,0,0,0,0,0,0,0,-1.8701,-1.8717,-1.8887,-1.8833,-1.8832,-1.8816,-1.8825,-1.8916,-1.8926,-1.8861,-1.8856,-1.8868,-1.8943,-1.8973,-1.8982,-1.9125,-1.9001,-1.9008,-1.9013,-1.9016,-1.9383,-1.9388,0,0,0,0,0,0,-1.8696,-1.8712,-1.8884,-1.889,-1.8756,-1.8823,-1.8834,-1.8878,-1.8925,-1.8927,-1.8871,-1.8864,-1.8961,-1.8973,-1.8985,-1.9152,-1.9009,-1.9017,-1.9021,-1.9378,-1.9384,-1.9389,0,0,0,0,0,0,-1.8691,-1.8712,-1.888,-1.88,-1.882,-1.8832,-1.8883,-1.8882,-1.8912,-1.8933,-1.8934,-1.89,-1.8958,-1.8974,-1.9083,-1.9154,-1.902,-1.9028,-1.9372,-1.938,-1.9387,-1.9486,0,0,0,0,0,0,-1.8685,-1.8711,-1.8764,-1.8801,-1.8824,-1.8977,-1.8887,-1.8887,-1.8926,-1.8917,-1.896,-1.8963,-1.8956,-1.9072,-1.9091,-1.9163,-1.9034,-1.9366,-1.9376,-1.9384,-1.9476,-1.9496,-1.9512,0,0,0,0,0,-1.8676,-1.8789,-1.8767,-1.8788,-1.8891,-1.8981,-1.8995,-1.8984,-1.8932,-1.8986,-1.8999,-1.8962,-1.9143,-1.9083,-1.9105,-1.918,-1.9361,-1.9373,-1.9384,-1.9468,-1.9492,-1.9512,0,0,0,0,0,0,-1.876,-1.8793,-1.877,-1.8897,-1.8937,-1.897,-1.9037,-1.9009,-1.9065,-1.9055,-1.9039,-1.9049,-1.9164,-1.9182,-1.9116,-1.9317,-1.9244,-1.926,-1.9301,-1.9323,-1.9341,-1.9335,-1.9041,0,0,0,0,0,-1.8793,-1.8863,-1.8888,-1.8999,-1.902,-1.9025,-1.9064,-1.9052,-1.9093,-1.9109,-1.913,-1.9171,-1.9237,-1.9281,-1.9343,-1.9478,-1.9486,-1.954,-1.9558,-1.9573,-1.9587,-1.9659,-1.9683,-1.9426,-1.9426,-1.9425,0,0,-1.8863,-1.8889,-1.8935,-1.9016,-1.9045,-1.9118,-1.904,-1.9121,-1.9174,-1.9121,-1.9226,-1.9243,-1.9287,-1.941,-1.9465,-1.9429,-1.9659,-1.9587,-1.9598,-1.9605,-1.9673,-1.9697,-1.9719,-1.9433,-1.9432,-1.9431,0,0,-1.9027,-1.9054,-1.9149,-1.9179,-1.9224,-1.9227,-1.9249,-1.9286,-1.9295,-1.9399,-1.9361,-1.9424,-1.9539,-1.9572,-1.9604,-1.9778,-1.9746,-1.9799,-1.9893,-1.9964,-1.9984,-2.0002,-2.0064,-2.0087,-1.9813,-1.9813,-1.9813,0,-1.9108,-1.9216,-1.9201,-1.9284,-1.9321,-1.9275,-1.9371,-1.9401,-1.9464,-1.9491,-1.9449,-1.9591,-1.9618,-1.9747,-1.9789,-1.9817,-1.9842,-1.9795,-1.9982,-2.0,-2.0016,-2.0076,-2.0099,-1.9819,-1.9818,-1.9818,-1.9817,0,-1.9313,-1.9389,-1.946,-1.9521,-1.9566,-1.9655,-1.9653,-1.97,-1.9683,-1.969,-1.9796,-1.9827,-1.9893,-1.9923,-1.9908,-2.005,-2.0026,-1.9984,-1.991,-2.0047,-2.0103,-2.0125,-1.9828,-1.9826,-1.9824,-1.9822,0,0,-1.9534,-1.9585,-1.9611,-1.9638,-1.9684,-1.9742,-1.9828,-1.9893,-1.9933,-1.9978,-2.005,-2.0147,-2.0107,-2.0143,-2.0131,-2.0193,-2.0329,-2.0143,-2.0144,-2.0177,-2.0487,-2.0519,-2.0545,-2.0308,-2.0312,-2.0315,-2.0483,0,-1.9701,-1.9851,-1.984,-1.9982,-2.0051,-2.0008,-2.0083,-2.0119,-2.0127,-2.0187,-2.0196,-2.0265,-2.0208,-2.0229,-2.0288,-2.03,-2.0391,-2.0288,-2.0375,-2.0378,-2.0366,-2.0574,-2.0609,-2.0766,-2.0505,-2.0508,-2.0511,0,-1.9916,-1.9967,-2.0116,-2.015,-2.0178,-2.0246,-2.0304,-2.0362,-2.0401,-2.0403,-2.0442,-2.042,-2.0506,-2.043,-2.0549,-2.0479,-2.0513,-2.0524,-2.053,-2.0539,-2.0453,-2.0589,-2.0816,-2.0839,-2.0545,-2.0542,-2.054,0,-2.0062,-2.0168,-2.0271,-2.0295,-2.0337,-2.0386,-2.0406,-2.044,-2.048,-2.053,-2.0555,-2.0615,-2.0648,-2.0695,-2.0689,-2.0634,-2.081,-2.0733,-2.0814,-2.0814,-2.0854,-2.0851,-2.109,-2.0875,-2.0875,-2.0875,-2.0874,0,-2.0249,-2.0342,-2.0337,-2.04,-2.0503,-2.0488,-2.059,-2.0604,-2.0635,-2.07,-2.0666,-2.0728,-2.0716,-2.0777,-2.0773,-2.0872,-2.0887,-2.089,-2.0888,-2.0894,-2.0894,-2.0917,-2.0906,-2.0881,-2.0879,-2.0878,-2.0877,0,-2.0431,-2.0431,-2.054,-2.057,-2.058,-2.0654,-2.068,-2.074,-2.0744,-2.0827,-2.0845,-2.0853,-2.0923,-2.0922,-2.1002,-2.0999,-2.112,-2.1106,-2.1107,-2.1104,-2.1185,-2.1177,-2.1447,-2.1482,-2.1245,-2.1247,-2.1249,0,-2.0551,-2.0621,-2.0659,-2.07,-2.0722,-2.0789,-2.0828,-2.0816,-2.0858,-2.0907,-2.0961,-2.1028,-2.1081,-2.1195,-2.1208,-2.1269,-2.1255,-2.1346,-2.1264,-2.1267,-2.1257,-2.1253,-2.1259,-2.1362,-2.1365,-2.1367,-2.1368,0,-2.0764,-2.076,-2.0818,-2.0877,-2.0924,-2.097,-2.1011,-2.1047,-2.1038,-2.1088,-2.1159,-2.12,-2.1281,-2.1348,-2.1406,-2.1426,-2.1397,-2.1394,-2.1416,-2.1422,-2.142,-2.1422,-2.1151,-2.1388,-2.1386,-2.1385,-2.1383,-2.1383,-2.0918,-2.0978,-2.1014,-2.108,-2.1109,-2.1148,-2.1206,-2.1217,-2.1276,-2.1341,-2.133,-2.1409,-2.1445,-2.152,-2.1545,-2.1607,-2.1575,-2.1607,-2.1615,-2.1623,-2.1632,-2.141,-2.1618,-2.1617,-2.1616,-2.1616,-2.1616,0,-2.1129,-2.115,-2.121,-2.1269,-2.132,-2.1287,-2.1331,-2.1376,-2.1446,-2.1482,-2.1535,-2.1616,-2.168,-2.1697,-2.1759,-2.1805,-2.1793,-2.1822,-2.1818,-2.1823,-2.1657,-2.1632,-2.1831,-2.183,-2.183,-2.183,-2.183,-2.183,-2.1245,-2.1345,-2.1345,-2.1459,-2.1478,-2.1556,-2.1584,-2.162,-2.1648,-2.174,-2.1793,-2.1804,-2.1832,-2.1895,-2.1952,-2.1955,-2.198,-2.2014,-2.2012,-2.1857,-2.1835,-2.1815,-2.1791,-2.202,-2.202,-2.2173,-2.2174,-2.2176]},{"header":{"parameterUnit":"m.s-1","parameterCategory":1,"la1":30.2991,"la2":30.254,"lo1":-89.0895,"lo2":-89.0444,"dy":0.0017,"dx":0.0017,"nx":28,"ny":28,"refTime":"2023-11-23T03:00:00:Z","depth":0,"parameterNumber":3,"parameterNumberName":"V-component_of_WINDS"},"data":[0,0,0,0,0,0,0,0,0,0,0,0,0,0,0,0,0,0,0,0,0,0,0,0,0,0,0,0,0,0,0,0,0,0,0,0,0,0,0,0,0,0,0,0,0,0,0,0,0,0,0,0,0,0,0,0,0,0,-3.9278,-3.9279,0,-3.9377,-3.9378,-3.9379,-3.934,-3.9338,-3.9335,-3.9333,-3.9432,-3.9437,-3.9441,0,0,0,0,0,0,0,0,0,0,0,0,0,-3.9051,-3.9056,-3.9277,-3.9279,-3.928,-3.9376,-3.9378,-3.9379,-3.934,-3.9337,-3.9335,-3.9332,-3.943,-3.9436,-3.9442,0,0,0,0,0,0,0,0,0,0,0,0,0,-3.915,-3.9057,-3.9277,-3.9272,-3.9273,-3.9376,-3.9378,-3.9379,-3.9341,-3.9337,-3.9334,-3.9331,-3.9429,-3.9436,-3.9443,-3.9556,0,0,-3.9465,-3.9468,0,0,0,0,0,0,0,0,-3.9144,-3.9158,-3.9272,-3.9273,-3.9274,-3.9342,-3.9334,-3.9438,-3.9342,-3.9315,-3.9333,-3.9329,-3.9405,-3.9414,-3.944,-3.9561,-3.9565,-3.9465,-3.947,-3.9473,-3.9475,0,0,0,0,0,0,0,-3.9138,-3.9154,-3.9316,-3.9273,-3.9275,-3.9264,-3.9274,-3.9354,-3.9378,-3.9317,-3.9314,-3.9327,-3.9405,-3.9433,-3.9442,-3.9566,-3.9465,-3.9471,-3.9476,-3.9479,-3.9783,-3.9786,0,0,0,0,0,0,-3.9131,-3.9148,-3.9313,-3.9319,-3.9199,-3.9271,-3.9282,-3.9324,-3.9377,-3.9382,-3.933,-3.9325,-3.9422,-3.9434,-3.9445,-3.958,-3.9473,-3.9479,-3.9483,-3.9779,-3.9784,-3.9788,0,0,0,0,0,0,-3.9126,-3.9146,-3.9309,-3.9233,-3.9253,-3.9278,-3.9325,-3.9328,-3.9356,-3.9387,-3.939,-3.9354,-3.942,-3.9435,-3.9528,-3.9583,-3.9482,-3.9489,-3.9775,-3.978,-3.9786,-3.9851,0,0,0,0,0,0,-3.912,-3.9145,-3.9189,-3.9235,-3.9258,-3.9392,-3.9329,-3.9332,-3.9369,-3.9363,-3.9411,-3.9415,-3.9419,-3.9518,-3.9536,-3.9591,-3.9495,-3.977,-3.9777,-3.9784,-3.9844,-3.9859,-3.9871,0,0,0,0,0,-3.9112,-3.9203,-3.9191,-3.9211,-3.9313,-3.9396,-3.9408,-3.9411,-3.9373,-3.9417,-3.9437,-3.9414,-3.9574,-3.9528,-3.9547,-3.9606,-3.9766,-3.9775,-3.9783,-3.9838,-3.9856,-3.987,0,0,0,0,0,0,-3.9163,-3.9209,-3.9196,-3.9305,-3.9347,-3.9389,-3.9444,-3.9429,-3.9482,-3.9474,-3.9474,-3.9486,-3.9582,-3.9603,-3.955,-3.9717,-3.9664,-3.9677,-3.97,-3.9716,-3.9729,-3.9722,-3.9501,0,0,0,0,0,-3.9187,-3.925,-3.9287,-3.938,-3.9401,-3.9419,-3.9455,-3.9454,-3.9496,-3.9513,-3.954,-3.9581,-3.964,-3.968,-3.9736,-3.9847,-3.9856,-3.9897,-3.991,-3.9921,-3.9932,-3.999,-4.0008,-3.9816,-3.9816,-3.9815,0,0,-3.9236,-3.927,-3.931,-3.9391,-3.9423,-3.9487,-3.9434,-3.9505,-3.9553,-3.9524,-3.9613,-3.9634,-3.968,-3.9783,-3.9829,-3.9803,-3.9987,-3.9932,-3.994,-3.9945,-4.0001,-4.0019,-4.0035,-3.9821,-3.982,-3.9819,0,0,-3.936,-3.9393,-3.9473,-3.9506,-3.9555,-3.9566,-3.9585,-3.9629,-3.9642,-3.9732,-3.9711,-3.9767,-3.987,-3.9903,-3.9934,-4.0069,-4.005,-4.0087,-4.0156,-4.0213,-4.0228,-4.0242,-4.0289,-4.0306,-4.0098,-4.0098,-4.0099,0,-3.9416,-3.9514,-3.9515,-3.9588,-3.9623,-3.96,-3.968,-3.9712,-3.9777,-3.9801,-3.9772,-3.99,-3.9929,-4.0038,-4.0071,-4.0097,-4.0118,-4.0082,-4.0226,-4.024,-4.0252,-4.0297,-4.0315,-4.0103,-4.0102,-4.0102,-4.0101,0,-3.9579,-3.9647,-3.9705,-3.9769,-3.9811,-3.9887,-3.9899,-3.9941,-3.9935,-3.9949,-4.004,-4.0075,-4.0137,-4.0163,-4.0158,-4.0271,-4.0254,-4.0226,-4.0172,-4.0275,-4.0316,-4.0334,-4.0109,-4.0107,-4.0106,-4.0105,0,0,-3.9738,-3.9801,-3.9822,-3.985,-3.9902,-3.9954,-4.0028,-4.009,-4.0125,-4.017,-4.0231,-4.0319,-4.0292,-4.0327,-4.0326,-4.0376,-4.0479,-4.0341,-4.0342,-4.0365,-4.0604,-4.0624,-4.0644,-4.0467,-4.047,-4.0473,-4.0599,0,-3.9865,-3.9996,-3.9999,-4.0119,-4.018,-4.0159,-4.0223,-4.0261,-4.0276,-4.033,-4.0345,-4.0407,-4.0368,-4.0389,-4.0438,-4.0456,-4.0527,-4.0447,-4.0522,-4.0525,-4.051,-4.0666,-4.0688,-4.0806,-4.0616,-4.0619,-4.0621,0,-4.0031,-4.0081,-4.0207,-4.0249,-4.0275,-4.0333,-4.0389,-4.0441,-4.0483,-4.049,-4.0528,-4.0519,-4.0593,-4.0538,-4.0639,-4.0585,-4.0616,-4.0629,-4.0634,-4.064,-4.0578,-4.0675,-4.0844,-4.0861,-4.0647,-4.0645,-4.0643,0,-4.0132,-4.0232,-4.032,-4.0344,-4.0396,-4.0437,-4.046,-4.0499,-4.0535,-4.0583,-4.0607,-4.0663,-4.0694,-4.0737,-4.0743,-4.0703,-4.0844,-4.079,-4.0851,-4.0851,-4.0881,-4.0879,-4.1056,-4.0903,-4.0903,-4.0902,-4.0902,0,-4.0273,-4.0351,-4.0366,-4.042,-4.0506,-4.0508,-4.0592,-4.0612,-4.0646,-4.0702,-4.0687,-4.074,-4.0745,-4.0799,-4.0804,-4.0886,-4.09,-4.0907,-4.0907,-4.0908,-4.0907,-4.0927,-4.0919,-4.0907,-4.0906,-4.0905,-4.0904,0,-4.0401,-4.0415,-4.0509,-4.0549,-4.0561,-4.0623,-4.0657,-4.0707,-4.072,-4.0792,-4.0809,-4.0829,-4.0891,-4.0901,-4.0975,-4.0978,-4.1076,-4.1069,-4.1063,-4.1061,-4.1121,-4.1115,-4.1317,-4.1342,-4.1173,-4.1175,-4.1176,0,-4.049,-4.0549,-4.0596,-4.0633,-4.0658,-4.0718,-4.0755,-4.0759,-4.0798,-4.0849,-4.0894,-4.0955,-4.1004,-4.1105,-4.1125,-4.1181,-4.1174,-4.1241,-4.1182,-4.1181,-4.1174,-4.117,-4.1175,-4.1252,-4.1254,-4.1255,-4.1256,0,-4.0646,-4.0649,-4.0703,-4.076,-4.0804,-4.0849,-4.0891,-4.0922,-4.0931,-4.0975,-4.1039,-4.1078,-4.1153,-4.1213,-4.1268,-4.1291,-4.1275,-4.1275,-4.1292,-4.1293,-4.1286,-4.1289,-4.1092,-4.127,-4.1269,-4.1268,-4.1267,-4.1266,-4.0756,-4.0807,-4.0847,-4.0908,-4.094,-4.0979,-4.1029,-4.1048,-4.1102,-4.1163,-4.1162,-4.1232,-4.1271,-4.1344,-4.137,-4.1424,-4.1402,-4.1427,-4.1433,-4.1439,-4.1444,-4.1278,-4.1434,-4.1434,-4.1433,-4.1433,-4.1433,0,-4.0909,-4.0934,-4.099,-4.1049,-4.1097,-4.1078,-4.1123,-4.1164,-4.1226,-4.1264,-4.1313,-4.1386,-4.1444,-4.1469,-4.1526,-4.1564,-4.1558,-4.1579,-4.1575,-4.158,-4.1461,-4.144,-4.1582,-4.1582,-4.1582,-4.1582,-4.1582,-4.1582,-4.0995,-4.108,-4.1088,-4.1188,-4.1212,-4.1281,-4.1308,-4.1343,-4.1374,-4.1456,-4.1505,-4.1521,-4.1553,-4.1612,-4.1664,-4.167,-4.1691,-4.1715,-4.1717,-4.1604,-4.1589,-4.1575,-4.1555,-4.1719,-4.172,-4.1832,-4.1833,-4.1834]}]]